sat.trackr.live / text

‹ back to catalog

STARLINK-33839

NORAD 64113 · 2025-110T

PAYLOAD ACTIVE UNKNOWN

§ Identity

Operator
Country
US
Launch date
2025-05-23
Launch site
AFWTR
Launch vehicle
Mass (kg)
RCS (m²)

Purposes: comms

External: N2YO · Heavens-Above · Gunter

§ Orbital elements

Epoch: 2026-05-24T23:08:13.907904Z

Period
94.01 min
Inclination
53.1597°
Eccentricity
0.0000976
Mean motion
15.31709953 rev/d
Perigee alt
470.0 km
Apogee alt
471.4 km
Semi-major
6,848.8 km
B*
6.1014e-4
RAAN
32.2456°
Arg perigee
81.2711°
Mean anomaly
278.8401°
Rev number
5,756

§ Raw data

STARLINK-338391 64113U 25110T   26144.96404986  .00018621  00000+0  61014-3 0  99992 64113  53.1597  32.2456 0000976  81.2711 278.8401 15.31709953 57567

JSON: /api/v1/satellites/64113 · /tle

For live sub-satellite position, see the globe view (requires WebGL).

§ Visibility from observer

Set your observer location to see the next 7 days of passes ≥ 10°. The values pass through the URL so the page stays shareable.

No JS? Fill the form by hand. The geolocation button needs JavaScript.